This demonstration page uses our WeatherBlox Daily Observations layout. Learn more.

Left ArrowRight Arrow

39.12711, -84.51439

Hourly Observations for September 19, 2021

Temp ( °F °C ) Dew Point ( °F °C ) Humidity (%) Winds ( mph kmh ) Pressure ( in mb ) Visibility ( mi km ) Precip ( " mm )
12:53 am 00:53 Clear 68 20 67 19.4 96 96 N N/A 30.12 1020 10 16 N/A
1:53 am 01:53 Clear 67 19.4 66 18.9 97 97 N N/A 30.11 1020 9 14 N/A
2:15 am 02:15 Mostly Clear with Mist and Fog 65 18.3 64 17.8 97 97 N N/A 30.12 1020 6 10 N/A
2:53 am 02:53 Clear 66 18.9 66 18.9 100 100 N N/A 30.12 1020 10 16 N/A
3:35 am 03:35 Mostly Clear with Mist and Fog 66 18.9 65 18.3 96 96 N N/A 30.12 1020 4 6 N/A
3:53 am 03:53 Mostly Clear 66 18.9 65 18.3 96 96 N N/A 30.11 1020 9 14 N/A
4:53 am 04:53 Mostly Clear 65 18.3 64 17.8 97 97 ENE 3 6 30.11 1020 9 14 N/A
5:53 am 05:53 Clear 64 17.8 64 17.8 100 100 N N/A 30.12 1020 7 11 N/A
6:24 am 06:24 Partly Cloudy 65 18.3 64 17.8 97 97 N N/A 30.13 1020 9 14 N/A
6:33 am 06:33 Mostly Cloudy with Mist and Fog 64 17.8 63 17.2 96 96 N N/A 30.13 1020 6 10 N/A
6:53 am 06:53 Mostly Cloudy 64 17.8 64 17.8 100 100 N N/A 30.13 1020 9 14 N/A
7:53 am 07:53 Mostly Cloudy with Mist and Fog 64 17.8 63 17.2 96 96 N N/A 30.14 1021 5 8 N/A
8:53 am 08:53 Mostly Sunny 68 20 67 19.4 96 96 NE 3 6 30.15 1021 8 13 N/A
9:53 am 09:53 Sunny 72 22.2 68 20 87 87 N N/A 30.15 1021 10 16 N/A
10:53 am 10:53 Sunny 75 23.9 68 20 79 79 N N/A 30.15 1021 10 16 N/A
11:53 am 11:53 Sunny 84 28.9 69 20.6 61 61 VRB 5 7 30.14 1021 10 16 N/A
12:53 pm 12:53 Sunny 87 30.6 65 18.3 48 48 ESE 7 11 30.13 1020 10 16 N/A
1:53 pm 13:53 Sunny 87 30.6 63 17.2 45 45 ESE 7 11 30.11 1020 10 16 N/A
2:53 pm 14:53 Sunny 85 29.4 61 16.1 45 45 E 5 7 30.07 1018 10 16 N/A
3:53 pm 15:53 Sunny 87 30.6 61 16.1 42 42 E 8 13 30.06 1018 10 16 N/A
4:53 pm 16:53 Sunny 85 29.4 63 17.2 48 48 E 5 7 30.05 1018 10 16 N/A
5:53 pm 17:53 Sunny 82 27.8 64 17.8 55 55 ESE 3 6 30.05 1018 10 16 N/A
6:53 pm 18:53 Sunny 76 24.4 69 20.6 79 79 N N/A 30.05 1018 10 16 N/A
7:53 pm 19:53 Clear 73 22.8 67 19.4 81 81 N N/A 30.05 1018 10 16 N/A
8:53 pm 20:53 Clear 72 22.2 68 20 87 87 N N/A 30.06 1018 10 16 N/A
9:53 pm 21:53 Clear 71 21.7 68 20 90 90 N N/A 30.07 1018 10 16 N/A
10:53 pm 22:53 Clear 72 22.2 68 20 87 87 N N/A 30.08 1019 10 16 N/A
11:53 pm 23:53 Clear 72 22.2 69 20.6 91 91 N N/A 30.07 1018 10 16 N/A

Powered by AerisWeather